Flag for Italy Weather past 2 weeks in Catania, Italy

52 °F

Passing clouds.

Feels Like: 49 °F
Forecast: 46 / 60 °F
Wind: 9 mph from West

Location: Catania / Fontanarossa

Current Time: Nov 27, 2015 at 7:42:21 PM

Latest Report: Nov 27, 2015 at 6:50 PM

Visibility: N/A

Pressure: 29.62 "Hg

Humidity: 72%

Dew point: 43 °F

Location of CataniaLocation

Historic Weather in Catania — Graph


Catania temperature yesterday

Maximum temperature yesterday: 57 °F (at 11:20 AM)
Minimum temperature yesterday: 46 °F (at 12:20 AM)
Average temperature yesterday: 50 °F

Past Weeks' High & Low Weather Summary

High70 °F (Nov 17, 12:50 PM)94% (Nov 13, 1:50 AM)30.36 "Hg (Nov 13, 1:50 AM)
Low45 °F (Nov 17, 5:20 AM)42% (Nov 22, 11:20 AM)29.36 "Hg (Nov 26, 1:50 PM)
Average58 °F76%29.96 "Hg
* Reported Nov 12 6:20 PM — Nov 27 6:20 PM, Catania, Weather by CustomWeather, © 2015

Note: Actual official high and low records may vary slightly from our data, if they occured in-between our weather recording intervals... More about our weather records


Catania weather history for previous 24 hours

Time TempWeatherWind HumidityBarometerVisibility
6:20 PM
Fri, Nov 27
52 °FPassing clouds.13 mph72%29.62 "HgN/A
5:50 PM52 °FPassing clouds.12 mph67%29.59 "HgN/A
5:20 PM52 °FPassing clouds.10 mph67%29.59 "HgN/A
4:50 PM52 °FPassing clouds.15 mph67%29.59 "HgN/A
4:20 PM54 °FScattered clouds.18 mph63%29.56 "HgN/A
3:50 PM55 °FScattered clouds.16 mph55%29.56 "HgN/A
3:20 PM55 °FScattered clouds.23 mph55%29.56 "HgN/A
2:50 PM57 °FScattered clouds.17 mph55%29.53 "HgN/A
2:20 PM57 °FScattered clouds.21 mph55%29.53 "HgN/A
1:50 PM57 °FScattered clouds.23 mph51%29.53 "HgN/A
1:20 PM57 °FScattered clouds.22 mph51%29.53 "HgN/A
12:50 PM57 °FScattered clouds.22 mph59%29.53 "HgN/A
12:20 PM59 °FScattered clouds.17 mph51%29.53 "HgN/A
11:50 AM57 °FPartly sunny.17 mph51%29.53 "HgN/A
11:20 AM57 °FScattered clouds.18 mph55%29.53 "HgN/A
10:50 AM55 °FScattered clouds.15 mph59%29.56 "HgN/A
10:20 AM55 °FPassing clouds.14 mph63%29.53 "HgN/A
9:50 AM54 °FPassing clouds.15 mph63%29.53 "HgN/A
9:20 AM52 °FPassing clouds.16 mph72%29.53 "HgN/A
8:50 AM50 °FPassing clouds.14 mph71%29.53 "HgN/A
8:20 AM48 °FScattered clouds.12 mph71%29.50 "HgN/A
7:50 AM46 °FSunny.12 mph76%29.53 "Hg10 mi
7:20 AM45 °FSunny.9 mph81%29.50 "Hg10 mi
6:50 AM45 °FPassing clouds.9 mph81%29.50 "HgN/A
6:20 AM45 °FPassing clouds.13 mph81%29.47 "HgN/A
5:50 AM46 °FPassing clouds.13 mph76%29.47 "HgN/A
4:50 AM46 °FPassing clouds.12 mph76%29.45 "HgN/A
4:20 AM46 °FPassing clouds.9 mph76%29.47 "HgN/A
3:50 AM46 °FClear.10 mph76%29.45 "Hg10 mi
3:20 AM46 °FClear.10 mph76%29.45 "Hg10 mi
2:50 AM46 °FClear.9 mph76%29.45 "Hg10 mi
2:20 AM46 °FClear.13 mph76%29.45 "Hg10 mi
1:20 AM46 °FPassing clouds.10 mph76%29.42 "HgN/A
12:50 AM46 °FPassing clouds.10 mph76%29.42 "HgN/A
12:20 AM46 °FPassing clouds.9 mph76%29.42 "HgN/A
11:50 PM
Thu, Nov 26
46 °FPassing clouds.9 mph82%29.42 "HgN/A
11:20 PM46 °FPassing clouds.12 mph82%29.42 "HgN/A
10:50 PM48 °FPassing clouds.15 mph76%29.42 "HgN/A
10:20 PM48 °FPassing clouds.13 mph76%29.42 "HgN/A
9:50 PM48 °FPassing clouds.12 mph76%29.42 "HgN/A
9:20 PM48 °FPassing clouds.13 mph71%29.39 "HgN/A
8:50 PM48 °FPassing clouds.16 mph76%29.39 "HgN/A
8:20 PM46 °FPassing clouds.14 mph82%29.39 "HgN/A
7:50 PM46 °FPassing clouds.12 mph76%29.39 "HgN/A
7:20 PM46 °FPassing clouds.13 mph82%29.39 "HgN/A
Weather by CustomWeather, © 2015

See weather overviewHow to use our weather pages